Temperature
18 18 18 18 18 17 17 17 17 17 18 18 18 18 18 18 18 18 18 18 18 18 18 18 18 18 17 17 17 17 17 17 17 17 16 16 16 16 16 16 16 16 16
18 18 18 18 17 17 17 17 17 17 17 17 17 17 17 17 17 18 17 17 17 17 18 18 18 18 17 17 17 17 17 17 17 17 16 16 16 16 16 16 16 16 16
18 18 17 17 17 17 17 17 17 17 17 17 17 17 17 17 17 17 17 17 17 17 17 17 17 17 17 17 17 17 17 17 17 17 17 16 16 16 16 16 16 16 16
18 17 17 17 17 17 17 17 17 17 17 17 17 17 17 17 17 17 17 17 17 17 17 17 17 17 17 17 17 17 17 17 17 17 17 17 16 16 16 16 16 16 16
17 17 17 17 17 17 17 17 16 17 17 17 17 17 17 17 17 17 17 17 17 17 17 17 17 17 17 17 17 17 17 17 17 17 17 17 16 16 16 16 16 16 16
17 17 17 17 17 16 16 16 16 16 16 17 17 17 17 18 17 17 17 17 17 17 17 17 17 16 16 17 17 17 17 17 17 17 17 16 16 16 16 16 16 16 16
17 17 17 17 16 16 16 16 16 16 16 17 17 17 18 18 18 17 17 17 17 17 17 17 16 16 16 16 16 16 16 16 16 16 16 16 16 16 16 16 16 16 16
17 17 17 16 16 16 16 16 16 16 16 16 16 17 17 18 18 18 17 17 17 17 17 17 16 16 16 16 16 16 16 16 16 16 16 16 16 16 16 16 16 16 16
16 16 16 16 16 16 16 16 15 16 16 16 16 16 16 17 17 17 17 17 17 17 16 16 16 16 16 16 16 16 16 16 16 16 16 16 16 16 16 16 16 16 16
16 16 16 16 16 16 16 15 15 15 15 16 16 16 16 16 16 16 17 17 16 16 16 16 16 16 16 16 15 15 15 15 15 15 16 16 15 15 16 16 16 15 15
16 16 16 16 15 15 15 15 15 15 15 15 15 15 16 16 16 16 16 16 16 16 16 16 16 16 16 15 15 15 15 15 15 15 15 15 15 15 15 15 15 15 15
16 16 16 15 15 15 15 15 15 15 15 15 15 15 15 15 15 16 16 16 16 16 16 16 16 16 15 15 15 15 15 15 15 15 15 15 15 15 15 15 15 15 15
16 16 16 15 15 15 15 15 15 14 14 14 15 15 15 15 15 15 15 15 16 16 16 16 16 15 15 15 15 15 14 14 14 15 15 15 15 15 15 15 15 15 15
17 16 16 15 15 15 15 15 14 14 14 14 14 14 14 14 14 14 14 15 15 15 16 16 16 15 15 15 14 14 14 14 14 14 14 14 15 15 15 15 15 15 15
17 16 16 15 15 15 15 15 14 14 14 14 14 14 14 14 14 14 14 14 14 14 15 15 15 15 15 14 14 14 14 13 13 13 14 14 14 14 15 15 15 15 15
16 16 16 15 15 15 15 15 14 14 14 14 14 14 14 14 14 14 14 14 14 14 14 14 14 14 14 14 14 14 13 13 13 13 13 14 14 14 14 14 15 15 15
16 16 16 15 15 15 15 15 15 14 14 14 14 14 14 14 14 14 13 13 13 13 13 14 14 14 14 14 14 13 13 13 13 13 13 13 14 14 14 14 14 14 14
16 16 16 16 15 15 15 15 15 14 14 14 14 14 14 14 14 14 13 13 13 13 13 13 13 13 13 13 13 13 13 13 13 13 13 13 14 14 14 14 14 14 14
16 16 16 16 16 15 15 15 15 14 14 14 14 14 14 14 14 13 13 13 13 13 13 13 13 13 13 13 13 13 13 13 13 13 13 14 14 14 13 13 14 14 14
16 16 16 16 16 15 15 15 15 15 14 14 14 14 14 14 14 13 13 13 13 13 13 13 13 13 13 13 13 13 13 13 13 13 13 13 13 13 13 13 13 13 14
16 16 16 16 16 16 15 15 15 15 15 15 14 14 14 14 14 14 13 13 13 13 13 13 13 13 13 13 13 13 13 13 13 13 13 13 13 13 13 13 13 13 13
16 16 16 16 16 16 16 15 15 15 15 15 14 14 14 14 14 14 14 14 13 13 13 13 12 12 13 13 13 12 12 12 12 12 12 12 12 13 13 13 13 13 13
17 16 16 16 16 16 16 16 15 15 15 15 15 15 14 14 14 14 14 13 13 13 13 13 12 13 13 13 12 12 12 12 12 12 12 12 12 12 12 12 13 13 13
16 16 16 16 16 16 16 16 15 15 15 15 15 15 14 14 14 14 13 13 13 13 13 12 12 13 13 12 12 12 11 11 11 12 11 11 12 12 12 12 12 12 13
16 16 16 16 16 16 15 15 15 15 15 15 14 14 14 14 14 14 13 13 13 13 13 12 12 12 12 12 12 11 11 11 11 11 11 11 12 12 12 12 12 12 12
16 16 15 15 15 15 15 15 15 14 14 14 14 14 14 14 14 14 13 13 13 13 13 12 12 12 12 12 12 12 11 11 10 10 11 11 12 12 12 12 12 12 12
Wind_Speed
3 4 4 3 3 5 4 2 1 1 1 2 4 3 4 4 2 3 9 12 12 12 13 12 13 12 12 12 12 12 12 12 12 12 11 10 10 10 10 9 9 9 9
5 4 3 2 2 4 4 2 2 1 1 1 2 3 3 4 1 1 5 9 12 12 13 13 14 14 13 13 13 13 13 13 13 13 13 12 12 12 11 11 10 10 10
5 4 3 3 2 4 4 2 1 2 2 2 1 2 3 2 2 1 3 6 9 12 13 13 14 15 15 14 14 14 14 14 13 13 13 13 14 14 13 13 12 12 11
5 4 3 3 2 3 3 2 1 1 1 1 1 3 2 3 4 5 6 7 7 7 12 15 14 15 15 15 15 14 15 16 15 15 15 15 15 15 15 15 14 14 13
5 4 4 3 1 2 2 2 3 2 2 2 3 4 3 3 3 4 4 4 5 6 9 14 16 16 16 15 15 15 15 16 17 17 17 17 17 17 17 17 17 16 15
5 5 5 3 2 3 3 3 1 0 2 2 5 3 3 3 2 1 2 3 4 5 5 7 11 13 16 17 17 16 16 16 17 17 17 17 18 18 19 19 19 19 18
6 3 4 3 2 3 3 2 2 2 1 1 3 4 4 5 4 3 1 0 1 1 1 5 7 6 9 16 17 17 17 16 17 18 18 19 19 19 20 20 20 20 20
5 5 4 2 3 3 3 2 2 2 3 2 2 4 2 1 1 3 3 3 1 1 2 4 5 6 6 7 12 16 17 16 16 17 18 19 19 19 20 20 21 21 22
5 4 4 2 2 2 3 1 1 2 3 3 2 2 3 3 2 1 1 2 2 0 2 2 3 4 5 4 5 8 12 13 14 15 17 18 20 20 21 21 21 21 23
5 5 4 3 1 1 3 1 3 2 2 3 1 1 1 2 2 2 2 1 2 2 2 2 2 2 3 4 4 5 7 8 10 12 14 16 18 21 22 22 22 22 22
4 5 5 4 2 1 3 2 2 2 2 3 3 2 2 0 2 2 2 2 2 1 2 1 0 1 0 3 5 5 7 6 5 7 11 13 16 18 21 23 23 24 24
5 5 6 4 2 1 2 2 1 1 0 2 3 3 2 2 2 2 3 3 3 2 1 1 1 0 0 3 4 5 8 7 6 5 6 8 11 14 16 20 23 23 24
6 5 5 4 2 2 2 2 2 1 0 0 2 3 3 3 2 2 3 4 4 3 2 2 2 2 1 4 5 4 7 8 7 7 7 8 9 11 13 16 19 20 21
6 8 6 5 4 3 3 3 2 3 2 1 2 1 3 3 2 2 2 3 4 4 2 1 1 2 1 3 5 3 5 8 8 9 9 9 10 10 12 14 16 17 18
6 8 6 6 4 3 2 2 2 1 2 2 2 2 2 3 2 2 2 2 3 4 4 2 1 0 1 2 5 6 5 9 11 12 13 12 12 12 12 13 15 16 18
5 7 6 6 5 5 4 3 3 3 3 2 3 2 2 3 2 2 2 2 3 3 4 4 3 2 1 3 4 4 7 10 14 17 18 18 17 16 15 15 15 16 17
6 6 6 6 5 5 5 4 4 3 4 4 4 3 3 3 3 3 3 3 3 3 4 5 4 3 3 4 4 6 10 12 13 19 21 22 21 20 19 18 17 18 18
7 7 6 6 6 6 6 5 6 4 4 4 5 4 4 4 4 4 3 4 4 4 4 6 5 5 6 5 5 5 8 11 11 14 18 21 23 22 22 21 20 20 20
7 7 7 7 6 6 6 6 6 5 5 5 5 5 5 5 5 4 4 5 4 6 4 5 6 5 5 6 5 5 7 6 12 14 15 20 23 24 23 23 23 22 22
8 8 8 7 7 7 6 7 7 7 6 6 6 6 6 6 6 6 6 6 6 5 6 6 6 6 5 6 4 4 5 5 6 9 10 10 16 23 26 26 25 25 25
11 9 8 8 8 8 8 8 7 8 7 7 7 7 7 8 8 7 7 5 5 5 5 6 6 6 5 4 4 3 5 5 5 6 6 6 5 7 13 20 24 25 26
9 9 9 8 9 9 10 10 7 5 5 6 7 7 7 8 11 14 14 12 10 8 7 7 7 7 7 6 5 5 5 5 6 4 4 6 6 6 5 10 17 23 26
8 8 8 8 8 7 8 9 9 6 6 6 7 7 9 10 7 7 11 15 15 17 15 11 10 10 10 8 7 7 6 7 7 6 6 8 7 8 6 14 18 18 23
8 7 7 7 7 8 10 10 10 7 7 8 9 9 9 9 11 9 8 9 9 11 13 13 13 14 13 10 9 8 8 9 9 8 9 10 9 8 10 8 16 17 19
7 7 7 7 7 7 9 10 9 6 7 9 10 10 10 10 13 13 10 10 10 10 13 17 18 18 19 17 11 7 7 8 10 8 7 8 8 7 7 7 10 17 20
5 6 7 7 7 7 9 12 11 6 7 8 8 9 13 14 14 12 9 10 11 11 11 12 10 12 14 15 17 13 11 11 11 9 8 7 7 7 7 6 6 6 10
Wind_Direction
115 106 100 108 138 133 139 141 112 89 336 331 298 302 328 334 26 89 142 165 172 179 186 192 196 197 197 199 198 196 194 193 192 190 188 188 187 187 186 183 179 177 174
112 115 123 121 101 108 114 124 141 160 249 268 289 309 300 309 6 91 164 179 186 187 191 198 203 202 203 204 203 203 201 199 198 197 198 197 197 196 196 194 191 188 187
124 125 125 120 108 123 133 138 173 179 212 236 252 279 269 281 276 234 218 203 198 200 200 202 205 206 208 210 208 208 204 203 203 202 204 205 206 204 203 202 201 198 197
134 134 122 112 141 140 138 143 59 25 37 343 266 259 236 213 223 221 227 221 206 202 204 207 208 209 210 214 214 213 208 207 207 208 209 211 213 213 211 209 208 206 205
152 132 109 113 185 114 83 61 69 21 359 329 273 239 232 216 208 227 214 224 218 205 204 207 211 212 215 218 218 218 215 211 210 210 211 213 216 218 217 216 214 212 211
148 126 125 130 107 83 70 64 40 313 292 291 302 294 248 229 202 206 234 234 217 219 206 190 202 218 223 223 222 222 221 218 215 212 212 214 219 220 220 220 219 217 216
135 128 117 134 118 104 86 58 9 319 292 356 309 287 242 205 175 175 191 297 288 248 211 190 200 210 221 224 225 226 225 223 220 216 215 217 221 222 222 222 222 222 220
148 149 121 143 106 119 108 80 40 338 337 23 323 321 310 85 316 176 162 197 182 348 264 217 195 207 221 212 221 227 228 228 226 222 221 220 222 222 225 225 224 223 222
160 121 134 119 123 149 125 116 50 9 356 328 16 355 349 26 325 112 142 106 104 236 294 284 221 208 209 194 204 216 224 228 231 231 228 227 228 226 226 227 227 226 225
164 149 143 130 103 77 111 155 84 353 337 322 353 40 42 53 339 341 314 92 185 205 228 301 321 231 194 168 166 173 201 218 230 237 238 237 234 231 230 230 232 232 229
171 159 145 133 129 100 105 86 74 359 340 350 349 355 11 328 253 276 315 326 294 242 190 178 254 322 183 153 150 157 174 190 211 237 244 244 242 239 234 233 235 237 234
176 162 148 138 161 144 115 116 101 210 345 14 347 336 338 338 335 334 320 310 306 294 219 147 177 214 139 126 137 151 173 185 198 224 247 253 250 247 243 238 238 239 238
164 159 150 146 163 136 143 142 175 246 217 35 307 308 338 337 335 339 330 325 323 299 262 200 175 169 157 135 133 159 186 192 205 221 238 252 258 257 252 244 240 239 239
152 147 141 156 161 166 178 157 220 197 167 193 261 307 313 306 325 336 324 327 317 313 315 302 109 119 107 122 144 196 212 210 217 228 236 244 252 257 257 250 243 241 241
144 144 153 161 165 169 165 158 232 210 150 210 254 228 253 287 285 302 311 314 310 313 316 320 348 142 180 185 192 224 248 229 232 238 241 244 247 251 254 253 246 242 241
133 145 157 163 170 170 176 199 235 196 199 217 235 236 258 291 309 291 279 286 285 290 298 315 301 296 318 294 252 257 282 267 245 245 244 243 244 245 246 247 246 244 244
152 162 168 174 182 183 182 196 243 209 209 225 244 230 225 256 287 303 295 278 271 276 285 296 303 311 294 269 266 264 272 267 254 251 244 240 240 241 242 243 244 244 244
170 175 180 188 199 195 190 199 229 231 221 226 236 241 245 249 234 256 279 286 282 272 263 277 286 283 275 262 247 242 263 273 274 271 248 237 236 237 239 241 242 243 243
183 186 188 198 210 210 199 204 218 235 236 237 238 238 241 249 253 249 257 267 278 284 281 277 280 274 268 262 251 253 259 264 273 277 261 240 236 237 238 240 242 242 242
191 196 195 204 211 218 215 211 214 223 230 237 241 242 242 241 243 242 253 249 255 267 272 272 270 270 266 264 253 249 266 262 271 284 288 270 243 237 237 239 241 241 241
200 199 201 205 212 218 221 215 218 225 222 232 240 242 246 244 239 238 254 258 271 271 275 278 279 281 277 284 282 278 278 279 272 270 271 274 258 235 237 240 242 244 242
205 199 204 209 216 226 215 206 208 238 239 239 244 245 251 244 236 232 237 242 243 251 260 268 277 277 282 287 290 290 288 288 284 283 296 291 288 276 253 248 241 236 237
204 207 209 214 223 221 202 198 206 223 248 253 253 252 259 262 251 237 234 236 242 243 239 245 258 264 271 277 286 288 281 278 276 281 292 281 272 272 268 273 267 249 236
202 206 211 220 226 226 206 206 210 225 245 253 254 252 252 259 263 259 260 254 242 240 235 234 240 247 251 253 254 260 264 270 266 259 249 261 259 255 261 259 267 262 245
203 208 214 218 221 225 207 208 207 232 246 253 255 257 254 254 252 248 250 255 259 260 258 249 231 233 239 246 248 258 262 266 271 267 253 254 259 258 255 254 256 259 249
212 217 221 221 222 226 213 210 208 234 252 260 261 259 257 255 255 249 247 253 258 259 266 274 262 248 246 248 242 237 245 253 261 265 257 258 263 264 268 258 254 257 250
Height
1557 1558 1559 1560 1561 1562 1562 1563 1564 1564 1565 1566 1567 1568 1569 1570 1571 1572 1572 1573 1574 1575 1576 1577 1578 1579 1581 1582 1583 1585 1586 1588 1590 1591 1593 1595 1596 1598 1599 1601 1602 1603 1605
1556 1558 1559 1560 1560 1561 1561 1562 1563 1563 1564 1565 1565 1566 1567 1568 1569 1570 1570 1571 1572 1573 1574 1575 1576 1578 1579 1580 1581 1583 1585 1586 1588 1590 1592 1593 1595 1597 1598 1600 1601 1603 1604
1555 1557 1558 1559 1559 1560 1561 1561 1562 1562 1563 1563 1564 1565 1565 1566 1567 1567 1568 1569 1570 1571 1572 1573 1574 1575 1577 1578 1579 1581 1582 1584 1586 1587 1589 1591 1593 1595 1597 1599 1600 1601 1603
1554 1556 1557 1558 1558 1560 1560 1561 1561 1562 1562 1562 1563 1563 1564 1564 1565 1566 1567 1568 1568 1569 1570 1571 1572 1573 1574 1575 1576 1578 1579 1581 1583 1585 1587 1589 1591 1593 1595 1597 1598 1600 1601
1554 1555 1556 1557 1558 1559 1560 1560 1560 1561 1561 1561 1562 1562 1563 1563 1564 1564 1565 1566 1567 1567 1568 1568 1569 1570 1571 1572 1573 1575 1576 1578 1579 1581 1583 1586 1588 1590 1592 1594 1596 1597 1599
1553 1555 1555 1556 1557 1558 1559 1559 1559 1560 1560 1561 1561 1561 1561 1562 1562 1563 1564 1565 1565 1566 1566 1566 1567 1568 1568 1570 1570 1571 1573 1574 1575 1577 1579 1582 1584 1586 1588 1591 1593 1595 1596
1553 1554 1555 1556 1557 1557 1558 1558 1559 1559 1560 1560 1560 1560 1560 1560 1561 1561 1562 1563 1564 1564 1565 1565 1565 1565 1566 1567 1567 1568 1569 1570 1572 1573 1575 1577 1579 1582 1584 1586 1589 1591 1593
1552 1554 1554 1555 1556 1556 1557 1557 1557 1558 1559 1560 1560 1559 1559 1560 1560 1561 1561 1562 1562 1563 1563 1563 1563 1563 1564 1564 1565 1565 1566 1567 1568 1569 1571 1573 1575 1577 1579 1582 1584 1587 1589
1551 1552 1553 1554 1555 1556 1556 1556 1556 1557 1558 1559 1559 1560 1559 1559 1560 1561 1561 1561 1561 1562 1562 1562 1562 1562 1562 1562 1562 1562 1563 1564 1564 1566 1567 1568 1570 1572 1574 1576 1579 1581 1584
1550 1551 1552 1553 1554 1555 1555 1555 1555 1557 1557 1558 1559 1559 1560 1559 1560 1560 1561 1560 1560 1560 1560 1560 1560 1560 1560 1560 1560 1560 1560 1561 1561 1562 1563 1564 1565 1567 1569 1571 1573 1576 1578
1548 1549 1550 1551 1552 1553 1553 1554 1554 1555 1556 1557 1557 1558 1558 1559 1559 1560 1560 1560 1559 1559 1559 1559 1559 1559 1559 1558 1558 1558 1558 1558 1559 1559 1559 1560 1561 1562 1564 1565 1568 1570 1572
1546 1548 1549 1550 1551 1551 1552 1552 1553 1554 1555 1555 1556 1557 1558 1558 1558 1558 1558 1558 1558 1558 1557 1557 1557 1557 1557 1556 1556 1555 1555 1556 1556 1556 1556 1556 1557 1558 1559 1560 1562 1564 1566
1544 1546 1547 1548 1549 1550 1550 1551 1552 1553 1553 1554 1554 1555 1556 1557 1557 1557 1557 1557 1556 1556 1556 1555 1555 1555 1555 1554 1554 1553 1553 1553 1552 1552 1552 1552 1553 1554 1554 1555 1556 1558 1560
1543 1544 1545 1546 1547 1548 1549 1550 1551 1552 1552 1552 1553 1554 1554 1555 1555 1556 1556 1556 1555 1554 1554 1553 1553 1553 1553 1552 1551 1551 1550 1549 1549 1549 1548 1549 1549 1549 1550 1551 1552 1553 1554
1541 1542 1543 1544 1545 1546 1547 1548 1549 1550 1551 1551 1552 1552 1552 1553 1554 1554 1554 1554 1554 1553 1552 1552 1551 1551 1550 1549 1548 1548 1547 1546 1545 1545 1544 1544 1544 1545 1545 1546 1547 1548 1549
1539 1540 1541 1542 1543 1544 1545 1546 1547 1548 1549 1549 1550 1550 1550 1551 1551 1551 1552 1552 1551 1551 1550 1549 1549 1548 1547 1547 1546 1544 1543 1542 1541 1540 1540 1540 1540 1540 1540 1541 1541 1542 1544
1536 1538 1539 1540 1542 1543 1544 1544 1545 1547 1547 1547 1548 1548 1548 1548 1548 1548 1549 1549 1548 1548 1547 1546 1546 1545 1544 1543 1542 1540 1539 1538 1537 1536 1536 1535 1535 1535 1535 1535 1535 1536 1537
1533 1535 1536 1538 1539 1541 1542 1542 1543 1544 1545 1545 1545 1546 1546 1546 1546 1545 1545 1545 1545 1545 1544 1542 1542 1541 1540 1539 1538 1536 1535 1534 1533 1532 1532 1531 1530 1530 1530 1529 1529 1530 1531
1531 1532 1533 1535 1536 1538 1539 1540 1541 1542 1542 1542 1543 1543 1543 1543 1542 1542 1542 1541 1541 1541 1540 1539 1538 1537 1536 1535 1534 1532 1531 1530 1529 1528 1527 1526 1525 1525 1524 1524 1524 1523 1524
1528 1529 1530 1532 1533 1535 1536 1537 1538 1538 1539 1539 1539 1539 1539 1539 1538 1538 1538 1537 1537 1536 1536 1535 1533 1533 1532 1531 1530 1528 1527 1526 1525 1524 1523 1521 1520 1519 1519 1518 1518 1518 1517
1524 1526 1527 1529 1530 1531 1532 1533 1534 1535 1535 1535 1535 1535 1535 1535 1534 1534 1534 1533 1533 1532 1531 1530 1529 1528 1527 1526 1525 1524 1522 1521 1520 1519 1517 1516 1515 1514 1513 1512 1512 1511 1511
1520 1522 1523 1525 1526 1528 1529 1530 1531 1531 1532 1531 1531 1531 1531 1530 1530 1529 1529 1528 1528 1527 1526 1525 1523 1523 1522 1521 1520 1519 1517 1516 1514 1514 1512 1510 1510 1508 1507 1507 1506 1505 1505
1516 1517 1519 1521 1522 1524 1525 1526 1526 1527 1527 1526 1526 1526 1525 1526 1525 1524 1523 1522 1522 1521 1520 1519 1517 1516 1515 1515 1514 1513 1511 1510 1507 1507 1506 1503 1502 1501 1501 1500 1500 1499 1499
1510 1512 1514 1516 1517 1519 1520 1521 1522 1522 1521 1521 1520 1520 1520 1519 1519 1519 1518 1517 1515 1514 1513 1512 1510 1509 1509 1508 1508 1507 1505 1503 1500 1499 1499 1496 1495 1494 1493 1493 1493 1493 1492
1505 1507 1509 1511 1512 1514 1515 1516 1517 1516 1515 1515 1515 1515 1514 1513 1513 1512 1511 1510 1508 1507 1507 1506 1504 1502 1501 1501 1501 1500 1498 1496 1493 1492 1493 1491 1489 1488 1487 1486 1486 1486 1485
1502 1502 1503 1506 1507 1508 1509 1510 1511 1510 1510 1509 1509 1509 1508 1507 1507 1505 1504 1502 1500 1499 1499 1498 1496 1495 1494 1493 1492 1492 1490 1489 1486 1484 1484 1485 1483 1482 1480 1479 1479 1478 1478